Wind_Speed
33 35 41 47 44 44 45 48 47 27 27 28 23 20 15 17 13 11 18 18 16 13 12 11 9 9 8 9 7 6 8 7 8 11 11 12 14 16
24 23 30 42 41 42 43 45 46 38 24 33 26 20 22 21 14 11 15 17 14 13 11 10 10 9 8 7 6 6 7 7 8 8 10 11 10 11
28 25 22 26 34 39 38 37 41 32 29 27 26 24 26 21 17 14 15 14 14 13 11 10 9 10 9 8 7 6 6 6 7 7 8 9 9 10
25 27 27 23 32 35 36 43 38 26 26 27 29 30 28 22 19 15 14 15 14 12 11 11 10 9 9 8 8 7 6 6 6 7 6 7 9 8
27 28 27 20 33 28 32 24 27 26 23 24 27 31 28 24 21 15 15 16 14 12 11 11 11 10 10 9 8 6 5 6 5 5 6 6 8 8
19 24 23 34 30 32 34 22 17 26 28 25 24 31 31 28 22 20 21 19 16 14 12 12 11 11 10 8 7 6 5 5 5 4 4 5 5 6
16 16 23 27 32 28 32 19 18 23 29 30 30 36 35 32 30 26 21 22 16 13 12 13 12 10 11 10 8 7 6 5 4 4 4 4 3 4
18 20 23 24 28 32 32 26 21 27 28 32 34 38 34 32 31 29 25 27 23 19 14 14 12 11 11 10 7 7 6 5 4 4 3 3 2 2
18 17 18 19 21 23 18 16 22 25 25 28 34 35 31 32 30 30 28 27 26 12 16 16 15 13 14 10 6 6 4 4 5 5 3 2 1 1
18 15 16 18 19 21 22 22 15 22 24 27 24 22 23 23 27 24 25 24 19 13 10 17 17 15 15 13 7 4 1 4 6 6 4 3 2 1
19 18 18 21 21 26 25 26 29 20 22 21 18 19 16 17 21 26 28 26 23 19 18 18 16 15 15 14 11 7 4 5 8 6 6 4 3 3
27 28 29 26 27 26 26 21 23 23 26 24 24 21 15 13 16 20 23 26 25 23 23 24 17 17 15 18 16 13 10 8 10 9 8 6 5 4
33 32 29 23 20 21 21 20 18 21 22 25 25 24 21 20 20 19 18 23 25 26 20 24 25 20 21 9 17 17 15 13 11 10 9 8 6 6
28 25 23 23 23 22 24 22 20 21 25 26 26 27 24 24 20 20 20 21 21 21 19 22 20 25 24 24 16 13 17 18 15 11 9 9 8 9
24 23 23 24 23 23 24 27 26 24 23 25 25 25 24 25 27 28 25 25 26 25 28 26 24 21 22 25 25 21 16 17 15 13 12 9 9 10
20 21 24 25 25 23 24 26 25 26 27 25 23 23 25 27 31 31 27 28 29 29 29 28 25 23 23 22 23 24 21 14 14 15 12 10 9 9
21 24 28 28 27 26 24 22 22 23 24 25 26 25 29 30 31 31 30 30 31 31 31 29 28 27 24 23 24 24 23 22 18 14 15 14 12 10
22 24 27 27 26 26 25 24 25 25 25 26 28 29 31 34 34 33 32 33 32 32 31 30 30 28 27 27 26 25 24 24 21 19 18 18 16 14
22 22 21 21 22 21 21 21 22 23 22 21 22 24 25 25 27 29 31 31 31 31 31 29 28 29 29 32 23 23 24 23 22 24 23 23 21 14
24 24 22 20 19 18 20 21 21 21 20 20 19 21 22 23 25 25 25 25 26 26 26 27 28 29 30 27 20 15 14 15 17 19 22 21 20 18
28 26 24 22 21 19 18 19 19 21 21 22 23 23 24 24 25 24 23 22 21 20 22 23 22 18 16 17 21 22 18 16 15 15 14 17 19 20
31 30 27 24 22 20 18 19 21 21 21 21 20 22 25 26 26 25 23 22 23 23 22 18 17 18 21 22 23 21 18 16 16 15 16 16 18 22
24 26 26 25 23 20 18 19 22 22 21 21 19 18 20 25 26 26 26 25 24 23 22 21 21 21 23 24 23 23 21 19 17 19 20 19 21 20
Wind_Direction
253 249 240 228 205 203 198 196 192 171 181 194 191 201 211 226 236 245 216 210 208 204 187 173 166 154 140 146 141 113 115 99 99 94 103 94 87 79
247 231 206 212 195 204 205 200 201 193 179 200 197 203 206 217 229 234 206 205 202 195 181 175 165 151 143 142 137 129 125 108 99 90 92 88 88 90
254 246 225 190 198 196 193 195 199 199 193 184 201 198 202 212 214 205 206 205 199 191 185 182 168 155 152 151 144 138 129 118 102 91 85 87 87 83
248 249 218 214 187 180 196 194 196 199 197 183 194 200 205 210 218 217 213 197 193 192 186 186 177 162 159 161 157 151 139 124 108 100 93 86 74 66
246 234 212 190 207 177 188 187 201 201 197 195 192 201 202 202 200 205 202 200 187 190 188 190 184 174 172 168 164 156 149 131 129 115 105 93 78 68
248 243 234 211 193 195 192 188 186 201 201 195 203 202 199 196 205 207 194 191 191 191 189 190 189 184 176 166 165 161 163 147 138 128 121 104 92 80
235 225 223 224 220 201 199 196 189 199 203 207 202 198 196 197 202 200 206 191 185 194 201 198 193 181 171 162 165 168 166 160 162 151 143 126 113 85
209 195 192 190 198 209 199 200 206 218 215 207 208 202 202 207 206 208 202 190 193 199 194 197 200 186 174 163 149 158 164 161 177 173 166 155 144 106
207 200 195 187 185 182 198 216 216 226 236 217 215 212 213 215 213 212 211 211 203 196 201 205 205 191 184 180 148 141 149 183 194 186 184 187 183 154
211 206 199 199 208 214 205 216 203 215 218 222 233 233 236 229 228 238 222 209 202 210 226 211 209 203 195 198 186 166 166 214 205 197 200 201 193 198
213 214 211 202 221 219 215 214 217 208 204 211 217 220 223 226 232 218 210 201 205 215 214 216 218 218 213 216 213 222 227 236 226 210 212 211 210 210
212 207 215 221 214 230 229 215 213 220 202 198 201 202 210 209 212 219 219 206 208 216 217 221 223 222 228 227 218 225 232 237 222 224 216 221 224 226
216 216 227 224 209 212 217 218 222 213 210 199 205 201 203 205 208 215 220 222 214 225 221 226 233 230 226 256 227 225 230 235 231 223 228 237 238 238
219 221 212 209 213 214 220 216 210 214 204 202 206 205 205 204 209 216 217 227 226 242 244 238 247 241 237 240 246 230 221 222 224 223 226 235 252 261
218 215 203 198 212 222 221 216 218 215 210 209 212 207 212 217 212 208 212 221 226 229 230 238 247 254 252 246 249 251 230 231 231 227 227 237 245 260
213 209 206 210 218 216 213 214 218 220 218 216 222 227 221 215 214 213 217 221 225 225 226 233 240 241 242 247 247 248 244 236 239 232 237 234 243 254
186 193 197 203 206 208 207 207 210 212 213 215 214 216 213 211 213 216 218 224 227 232 232 232 236 237 239 240 244 248 248 248 246 240 244 253 259 258
189 189 192 199 207 214 212 212 210 217 220 221 222 220 219 219 220 223 226 231 233 235 236 237 237 237 239 241 242 243 244 248 252 253 256 258 264 265
199 197 200 204 209 212 215 217 218 216 219 224 220 218 217 221 223 226 230 232 233 235 237 238 237 237 239 243 242 244 248 251 253 254 256 257 266 265
213 207 202 204 207 215 220 221 218 217 222 223 219 218 216 224 224 223 224 228 231 232 233 232 232 234 237 245 254 256 244 239 239 247 253 257 262 260
216 215 215 213 213 219 220 219 218 219 220 220 220 221 221 222 223 224 227 228 229 228 231 231 235 240 243 244 244 245 244 248 248 249 252 250 254 257
224 224 223 221 222 223 224 219 215 215 216 220 222 223 224 226 228 232 232 232 234 236 239 243 242 239 241 245 252 257 260 259 260 255 251 252 256 261
227 229 231 229 228 229 228 223 219 220 222 217 221 222 221 223 227 231 236 239 241 241 243 246 247 246 248 250 255 260 262 265 262 264 263 263 268 272
Height
1454 1455 1452 1452 1456 1460 1465 1472 1480 1486 1493 1496 1500 1505 1511 1520 1522 1525 1527 1527 1531 1531 1532 1533 1533 1532 1532 1535 1537 1537 1539 1537 1537 1533 1533 1532 1536 1537
1448 1447 1446 1444 1449 1456 1461 1469 1475 1478 1484 1489 1494 1499 1507 1517 1520 1521 1523 1526 1528 1529 1531 1532 1533 1531 1533 1534 1536 1537 1539 1537 1537 1534 1532 1533 1536 1536
1442 1445 1448 1445 1445 1453 1458 1466 1473 1475 1479 1485 1492 1498 1506 1512 1517 1519 1520 1522 1525 1527 1530 1533 1532 1530 1532 1534 1536 1538 1538 1538 1536 1537 1536 1534 1535 1536
1437 1440 1445 1446 1448 1452 1457 1462 1468 1471 1474 1480 1489 1496 1504 1510 1515 1517 1516 1521 1523 1525 1530 1532 1532 1530 1532 1535 1536 1538 1538 1538 1536 1536 1537 1537 1534 1536
1432 1437 1441 1443 1447 1452 1456 1460 1464 1468 1472 1478 1486 1495 1500 1507 1511 1514 1515 1520 1521 1524 1529 1531 1531 1531 1533 1534 1536 1537 1538 1536 1538 1537 1538 1538 1535 1536
1429 1431 1434 1440 1444 1448 1453 1456 1460 1465 1470 1478 1485 1491 1497 1503 1508 1510 1512 1516 1519 1523 1527 1529 1529 1530 1532 1534 1535 1537 1538 1537 1538 1538 1538 1537 1537 1536
1426 1428 1432 1436 1441 1445 1450 1454 1458 1462 1467 1474 1481 1487 1493 1498 1502 1505 1510 1514 1518 1522 1525 1526 1529 1530 1531 1533 1535 1535 1537 1536 1538 1538 1538 1537 1537 1536
1425 1427 1430 1433 1437 1442 1447 1451 1455 1459 1464 1472 1476 1481 1487 1493 1499 1501 1506 1510 1515 1518 1521 1524 1528 1529 1532 1533 1533 1535 1536 1535 1538 1537 1537 1537 1536 1535
1425 1427 1430 1433 1436 1440 1445 1449 1454 1458 1462 1469 1473 1478 1484 1489 1493 1498 1503 1507 1511 1515 1519 1521 1526 1529 1531 1532 1533 1534 1535 1536 1538 1536 1536 1536 1535 1534
1423 1426 1429 1433 1437 1441 1444 1448 1452 1456 1461 1466 1472 1477 1482 1487 1490 1493 1499 1506 1512 1514 1518 1520 1524 1527 1529 1530 1531 1532 1534 1536 1537 1535 1535 1534 1534 1534
1422 1426 1429 1433 1437 1440 1443 1446 1450 1454 1460 1466 1472 1477 1481 1485 1488 1492 1496 1501 1506 1511 1516 1520 1521 1524 1526 1528 1530 1531 1532 1534 1535 1534 1533 1533 1533 1533
1420 1424 1428 1432 1434 1438 1442 1445 1448 1452 1457 1463 1469 1475 1479 1482 1485 1488 1492 1496 1502 1508 1513 1517 1518 1522 1523 1524 1526 1529 1531 1532 1533 1532 1532 1531 1531 1532
1414 1420 1424 1428 1431 1436 1440 1443 1448 1452 1456 1461 1466 1470 1474 1479 1483 1486 1490 1493 1497 1503 1507 1513 1515 1518 1520 1521 1522 1525 1528 1530 1530 1530 1529 1529 1529 1530
1410 1414 1420 1425 1429 1433 1438 1441 1447 1450 1453 1457 1462 1466 1469 1474 1480 1484 1488 1491 1495 1500 1505 1509 1511 1514 1516 1518 1520 1522 1524 1526 1527 1527 1526 1526 1526 1527
1407 1412 1418 1423 1427 1431 1434 1438 1443 1447 1451 1455 1459 1463 1467 1472 1476 1481 1485 1489 1493 1497 1501 1504 1507 1511 1513 1513 1516 1519 1521 1522 1522 1523 1523 1523 1524 1524
1406 1411 1416 1420 1425 1429 1431 1435 1439 1444 1449 1453 1457 1460 1463 1467 1471 1476 1480 1484 1488 1492 1496 1501 1504 1507 1508 1510 1512 1514 1516 1518 1517 1518 1519 1519 1520 1521
1403 1407 1411 1416 1420 1424 1428 1432 1435 1440 1444 1448 1452 1456 1460 1464 1468 1472 1476 1479 1483 1486 1490 1495 1498 1501 1503 1505 1506 1508 1510 1511 1512 1514 1514 1515 1516 1517
1401 1404 1409 1413 1417 1421 1424 1428 1432 1436 1440 1444 1447 1451 1455 1459 1464 1467 1471 1474 1478 1482 1485 1489 1492 1495 1497 1499 1501 1502 1504 1505 1506 1507 1508 1509 1510 1512
1399 1403 1407 1411 1414 1417 1421 1425 1429 1433 1437 1440 1443 1447 1450 1454 1458 1462 1465 1468 1472 1475 1479 1482 1485 1488 1490 1490 1495 1497 1498 1499 1500 1500 1502 1502 1504 1507
1398 1401 1405 1409 1412 1416 1419 1422 1426 1430 1433 1436 1440 1443 1446 1450 1453 1456 1460 1463 1466 1470 1473 1476 1478 1480 1482 1486 1490 1492 1492 1493 1493 1494 1496 1497 1498 1500
1394 1398 1402 1407 1410 1413 1416 1418 1422 1425 1429 1432 1435 1438 1442 1445 1448 1452 1456 1459 1463 1466 1468 1470 1473 1478 1481 1483 1483 1483 1486 1487 1488 1490 1491 1492 1492 1493
1391 1395 1399 1403 1406 1409 1412 1414 1418 1421 1424 1428 1431 1434 1437 1440 1443 1447 1451 1454 1457 1460 1463 1467 1469 1472 1473 1474 1475 1477 1478 1481 1482 1483 1485 1486 1487 1486
1388 1392 1395 1399 1402 1405 1408 1410 1413 1417 1420 1423 1426 1429 1432 1435 1438 1442 1446 1449 1452 1455 1458 1461 1463 1465 1466 1467 1469 1470 1471 1473 1475 1476 1477 1479 1480 1481